Theta_e
349 349 349 349 349 349 346 344 344 344 345 344 344 342 340 338 338 338 336 333 333 331 328 327 327 326 326 325 323 323 322 322 321 321 320 321 322 323 323 323 323 322 322 322 322 322 321 321 320 320 319 318 317 316 312 310 309 309 315 320 320 320 320
347 348 349 349 350 348 345 344 344 345 346 344 345 342 338 337 338 338 335 333 333 331 329 328 327 326 325 324 323 323 322 321 320 320 319 320 321 322 322 323 322 322 322 322 321 321 320 320 320 319 319 317 316 314 311 310 308 309 316 321 320 320 320
346 346 348 349 349 347 345 344 345 346 345 344 344 339 334 337 339 337 335 333 332 331 329 328 327 325 324 323 323 323 321 320 319 318 318 319 320 322 322 322 321 321 321 320 320 320 319 320 319 319 318 316 315 312 308 309 308 309 317 320 319 319 319
345 346 346 347 348 346 344 344 344 345 345 343 341 338 336 339 338 334 333 332 331 330 329 328 326 324 323 323 323 322 321 320 319 317 317 317 319 321 321 321 320 320 320 319 319 319 318 319 318 317 316 314 313 309 305 306 307 311 318 320 318 319 319
345 346 345 345 347 345 344 344 344 345 344 341 339 339 339 338 335 332 331 331 330 329 329 326 325 324 323 323 322 321 321 320 318 317 316 315 317 318 318 318 318 318 318 318 318 318 318 317 316 315 314 313 311 306 303 304 307 312 318 319 318 318 318
345 345 345 345 346 344 343 344 344 344 343 341 340 340 340 336 332 331 330 331 330 328 327 325 324 324 323 322 322 321 320 319 318 317 315 313 314 314 314 314 315 315 316 316 317 317 316 315 314 314 313 310 308 304 302 304 308 314 318 318 318 318 318
346 345 345 344 344 343 343 344 343 343 342 341 341 340 337 334 332 331 330 330 329 328 326 325 324 324 323 322 321 321 320 319 317 315 313 312 311 311 311 312 313 314 315 316 315 315 314 314 313 313 309 306 304 303 302 305 311 316 318 318 318 318 317
345 346 344 344 344 342 342 343 342 342 341 340 340 337 334 332 331 331 330 329 328 327 325 324 324 323 322 322 321 320 319 318 316 314 311 311 310 309 309 311 312 313 314 314 313 313 313 312 312 311 306 304 306 305 304 309 315 317 317 317 317 317 316
345 344 344 344 343 341 342 342 341 342 340 336 336 334 332 332 331 331 330 329 327 326 325 324 323 322 322 321 320 319 318 317 315 312 310 310 310 309 310 310 311 312 312 312 312 311 311 311 311 308 303 305 309 309 309 313 316 316 316 316 315 315 314
345 344 344 344 343 341 341 341 341 341 338 333 333 334 333 333 332 331 331 328 326 325 324 323 322 322 321 320 319 318 318 317 314 311 310 310 311 310 310 310 311 311 311 311 311 310 310 309 307 305 302 305 311 312 312 315 316 315 315 314 314 313 312
344 342 343 343 341 340 340 340 340 340 337 333 334 335 335 334 332 331 330 326 325 324 323 322 322 321 320 319 318 318 317 316 314 312 311 311 311 310 309 311 311 311 311 311 310 310 308 307 304 302 301 304 309 312 313 314 314 314 314 313 312 310 309
342 341 342 342 340 339 338 339 339 340 337 334 335 336 335 334 331 330 327 325 324 323 322 322 321 320 319 318 319 318 317 316 314 313 312 311 311 310 310 311 312 311 311 310 308 308 308 307 305 303 301 301 306 311 313 313 313 313 313 312 311 309 308
341 341 342 342 340 338 337 338 339 339 337 335 335 335 334 334 330 327 325 323 323 322 321 321 320 319 319 318 318 318 317 317 316 315 313 312 311 311 311 312 312 312 311 309 308 308 309 310 309 308 305 302 303 307 309 310 310 312 312 311 310 310 308
342 342 342 341 339 337 336 337 338 337 335 333 332 332 332 331 328 325 324 323 323 321 320 319 319 319 318 318 317 317 317 318 317 316 315 313 312 312 312 312 312 312 311 309 308 310 311 311 312 311 310 307 305 305 306 306 307 309 310 310 310 310 309
343 342 341 339 338 337 335 336 336 336 334 332 331 330 330 328 326 324 324 323 321 319 318 319 318 317 317 316 316 316 317 318 318 317 316 315 313 312 312 312 312 312 311 308 309 310 311 311 312 312 312 312 310 308 307 307 307 307 309 310 310 311 310
342 342 340 338 337 337 335 336 336 335 333 332 331 330 329 327 325 324 322 320 319 318 317 317 317 316 315 315 315 316 318 318 318 317 317 316 315 313 312 312 312 312 310 308 309 310 311 311 312 312 312 313 312 311 310 309 309 308 308 308 309 310 310
342 340 340 338 337 336 335 335 335 334 333 332 331 330 329 327 324 322 320 319 318 317 316 316 315 314 314 315 315 317 319 318 318 318 317 317 316 315 313 312 312 311 309 309 310 311 311 311 311 312 312 313 313 312 311 310 310 310 309 308 308 308 308
341 339 339 338 337 337 336 335 335 334 333 331 330 331 328 325 321 319 318 318 317 316 315 316 315 313 314 316 316 317 318 319 318 318 318 317 317 316 315 312 312 311 311 311 311 311 312 312 312 312 313 314 314 313 312 311 311 310 310 309 308 308 307
340 338 338 338 337 337 336 335 335 334 332 331 330 328 324 321 318 317 317 317 316 316 315 316 315 314 315 316 315 316 318 319 319 319 318 318 317 317 316 313 312 312 312 311 312 312 312 313 313 314 314 314 314 313 313 312 311 311 311 310 310 309 308
340 339 338 338 338 337 336 335 334 333 332 331 328 323 319 318 317 316 316 316 316 316 316 315 315 315 315 316 315 316 318 319 319 318 319 318 317 317 316 314 312 312 312 312 312 313 313 313 314 314 314 314 314 314 313 313 312 312 312 311 311 310 309
341 340 338 338 337 337 336 335 333 331 331 329 325 319 318 317 316 316 317 317 317 316 316 315 315 315 316 315 314 315 318 319 319 319 319 317 316 316 315 314 313 312 312 313 313 313 313 314 314 314 314 314 314 314 314 313 313 313 313 313 312 311 310
342 340 339 338 337 337 336 335 333 332 331 327 321 318 317 316 316 317 317 317 317 316 315 315 316 315 315 314 314 315 317 318 317 317 316 315 314 314 314 314 313 313 312 313 313 314 314 314 314 314 314 314 314 314 314 313 314 314 313 313 313 313 311
343 340 339 338 337 337 336 334 333 333 329 323 318 317 317 316 316 317 317 317 316 315 314 315 315 315 314 314 314 314 314 315 314 314 314 313 313 313 314 314 314 313 312 312 313 314 314 314 314 314 314 314 314 314 314 314 314 314 314 314 313 313 313
342 340 338 338 337 336 335 334 333 330 324 319 317 317 316 316 316 317 317 317 315 314 314 314 314 314 314 314 315 314 314 314 313 313 313 313 313 313 314 314 314 314 313 313 313 314 314 314 314 314 314 314 314 313 313 313 314 314 314 314 314 313 314
341 339 338 338 337 336 335 333 330 325 319 317 317 317 317 317 317 316 316 315 313 313 314 314 314 314 314 315 314 314 314 314 313 313 313 313 314 314 315 315 315 315 315 314 314 314 314 315 314 315 315 314 314 314 313 313 314 314 314 314 314 313 314
339 338 337 337 336 335 334 332 326 320 317 317 317 316 317 318 317 315 314 313 312 313 313 313 313 313 314 314 314 314 314 314 313 313 313 313 314 315 315 315 315 315 315 314 314 314 314 314 314 315 315 315 314 314 313 313 314 314 314 314 314 314 313
339 337 337 337 335 334 332 328 322 317 317 317 317 317 318 318 316 314 313 312 312 313 313 313 313 312 313 313 314 314 314 314 313 313 313 314 314 314 314 314 314 315 314 314 314 314 314 313 313 313 314 314 314 314 313 313 313 314 314 314 314 314 313
338 337 336 335 334 332 329 323 318 317 317 317 317 318 318 318 316 314 313 312 312 313 314 314 313 313 313 313 313 314 314 314 313 313 313 314 314 314 314 314 314 314 314 314 314 314 314 314 313 313 313 314 314 314 313 313 313 313 313 313 314 314 313
337 335 335 334 332 328 323 319 318 318 317 317 318 318 318 318 317 315 313 312 313 314 314 314 314 314 314 314 314 314 314 313 312 312 313 314 314 314 314 314 314 314 314 314 314 314 314 315 314 314 313 313 313 313 313 313 313 313 313 313 313 314 314
335 334 334 332 328 323 319 317 318 317 317 318 319 318 319 319 319 315 313 312 313 314 314 315 315 315 315 314 315 315 314 313 313 312 313 314 314 315 314 314 315 315 315 314 314 315 315 315 314 314 314 314 314 314 314 314 314 313 313 313 313 314 314
334 333 332 329 324 319 317 317 317 317 318 319 319 319 320 320 318 315 312 312 313 314 314 315 315 315 315 315 315 315 315 315 314 314 315 315 315 315 315 315 315 315 315 315 315 315 315 315 315 315 315 315 315 314 314 314 314 314 314 314 314 314 313
333 332 329 325 321 318 316 317 317 318 319 319 319 320 320 319 317 314 312 313 313 314 314 315 315 315 315 315 315 315 316 316 315 315 315 315 316 316 316 316 316 316 316 316 316 316 316 315 315 315 316 316 316 315 315 315 315 315 315 314 314 314 314
332 328 324 321 319 317 317 317 317 318 319 318 319 320 318 316 315 314 312 312 313 313 314 314 314 315 315 315 315 315 315 316 316 316 316 316 316 316 316 316 316 316 317 317 317 317 316 316 316 316 316 316 316 316 316 316 316 316 315 315 315 314 314
328 324 321 319 318 317 317 318 317 317 317 316 317 317 315 314 314 313 311 311 313 313 314 314 314 314 315 315 315 315 315 316 317 317 317 317 316 316 316 316 316 316 316 317 317 317 317 317 317 317 317 317 316 316 316 316 316 316 316 316 316 315 315
324 321 320 319 318 318 319 318 317 317 316 315 315 314 312 313 314 313 312 312 312 312 313 314 314 315 315 315 315 315 315 316 317 318 318 318 318 317 317 317 317 317 317 317 317 317 317 317 317 317 317 317 316 316 316 316 316 316 316 316 316 316 315
322 321 320 319 319 319 319 318 317 317 316 315 313 313 312 312 313 314 313 313 312 312 313 313 314 315 316 315 315 315 315 316 318 319 319 319 319 319 318 318 318 318 317 317 317 318 317 317 317 317 317 316 316 316 316 316 315 316 316 316 316 315 314
321 321 320 320 319 319 318 318 317 317 316 315 314 313 313 312 312 314 314 314 314 314 313 313 313 314 315 315 315 315 315 316 318 319 319 319 319 319 318 318 318 318 318 318 317 317 317 317 317 317 316 316 315 315 315 315 316 316 316 316 315 314 314
321 321 320 320 319 319 318 318 317 317 317 317 315 314 314 312 312 314 315 316 316 316 315 314 314 314 314 314 315 315 315 316 318 319 318 318 318 318 318 318 317 317 316 317 317 315 315 316 315 315 315 314 314 314 314 315 316 316 315 315 314 314 314
Wind_Speed
23 23 23 23 24 25 27 27 26 23 21 19 19 15 10 10 10 9 8 7 6 5 5 3 3 5 7 9 11 12 12 12 12 13 12 11 10 10 10 11 12 12 12 12 12 12 13 13 15 16 18 19 20 20 19 17 14 10 5 4 5 6 6
22 24 24 24 25 27 28 28 26 24 22 21 19 14 10 11 12 10 9 8 5 4 4 3 5 7 8 9 11 12 12 12 13 14 13 12 11 10 10 10 11 10 10 11 11 12 12 13 15 16 18 20 21 22 19 14 12 8 3 2 4 5 5
20 22 24 26 27 28 29 28 26 26 25 22 18 12 10 12 12 10 9 6 4 4 5 5 7 8 10 10 11 11 12 13 14 14 13 12 11 10 10 10 10 9 10 10 11 11 12 13 14 16 18 20 22 23 18 11 9 7 3 2 3 4 5
18 19 21 24 26 28 28 27 27 28 25 20 15 11 12 14 12 10 7 5 5 5 4 6 8 10 10 9 10 11 12 13 14 14 13 12 11 9 9 9 9 9 9 9 10 10 11 13 14 16 19 21 23 23 16 8 6 5 3 3 3 4 5
18 18 18 22 25 25 26 27 28 27 24 18 13 13 15 15 12 10 9 7 6 5 5 8 10 9 8 8 9 11 12 14 14 14 13 11 9 8 8 9 9 9 9 8 8 9 10 12 14 17 21 23 24 21 14 7 5 4 4 3 3 4 5
19 18 18 22 25 24 26 27 26 26 24 18 15 17 17 15 13 12 10 8 6 5 8 10 9 7 7 8 9 11 12 14 14 14 13 11 10 10 9 9 9 9 8 7 7 8 10 13 16 20 23 23 21 18 12 7 5 5 4 3 3 4 6
18 17 17 21 22 22 26 27 24 24 23 20 19 20 17 14 14 13 10 6 6 7 9 8 6 5 6 8 9 11 12 14 14 14 13 12 13 13 12 12 12 10 9 8 9 11 13 16 19 22 22 20 18 16 11 8 7 7 6 4 4 5 6
16 15 17 20 19 20 26 26 22 21 22 22 23 20 16 15 16 14 9 6 6 7 8 6 5 6 6 7 9 11 12 14 14 14 13 14 15 15 15 14 14 12 11 11 12 14 16 18 20 21 20 16 15 15 12 10 10 9 7 7 7 7 9
14 13 15 17 17 20 26 25 21 20 19 19 20 18 18 17 16 13 8 6 7 7 7 6 5 6 6 7 9 11 13 14 14 13 14 15 17 17 16 15 13 12 12 13 14 14 16 18 18 19 18 15 14 15 14 13 12 10 9 9 9 10 11
11 12 14 15 16 21 24 23 21 20 18 17 18 19 21 18 15 12 8 8 9 8 7 6 5 5 6 8 9 11 12 13 12 12 14 16 18 17 16 16 16 15 14 14 14 14 15 16 17 18 17 15 13 14 15 14 13 11 10 11 11 12 13
8 10 11 14 17 20 22 21 21 19 16 18 19 20 20 17 14 12 9 9 9 8 7 5 4 5 6 8 9 10 11 12 13 13 14 16 17 17 17 19 20 19 17 16 15 15 16 17 18 19 19 16 13 13 14 14 13 12 12 12 13 15 15
11 10 12 15 17 19 21 21 20 16 14 16 18 17 15 15 14 12 11 11 10 7 6 5 4 5 6 7 7 9 11 12 14 15 15 15 15 16 18 19 20 19 18 17 16 17 18 20 22 23 22 18 13 11 12 13 13 12 13 14 15 17 17
13 13 15 16 16 19 20 19 17 14 13 15 16 14 14 14 13 12 13 12 9 6 5 5 4 5 6 6 8 9 10 11 14 15 15 14 14 15 17 18 18 18 17 17 17 19 21 24 27 28 26 23 17 13 12 12 13 13 14 15 16 17 18
15 15 15 14 15 17 18 17 16 15 15 15 16 16 16 14 13 12 11 9 7 6 6 6 5 6 7 6 7 8 9 10 12 13 14 14 13 14 15 16 16 16 16 16 17 19 21 24 27 28 28 27 23 18 15 14 15 15 14 15 16 17 19
17 16 15 15 16 16 16 17 17 17 16 15 16 16 15 14 13 11 8 7 7 7 6 6 6 6 6 6 6 7 8 9 11 12 13 13 13 13 14 14 14 14 14 15 16 18 19 21 23 25 26 26 25 23 21 19 18 17 15 15 16 18 19
17 16 16 17 17 17 17 17 16 15 15 15 14 14 13 13 11 9 7 8 8 7 6 6 6 6 6 6 7 8 8 8 9 10 11 12 12 12 12 13 14 13 12 14 15 16 17 18 20 21 23 24 24 24 24 23 22 19 17 16 17 17 18
17 17 17 16 17 18 18 16 14 14 15 15 14 13 12 11 9 8 9 9 8 7 8 7 6 6 6 7 7 6 6 7 7 8 10 10 11 11 11 11 12 12 11 12 13 13 14 16 17 19 20 21 22 23 24 24 24 21 19 18 17 17 17
19 19 18 16 16 17 16 14 13 14 16 16 14 12 10 9 9 10 10 9 8 8 8 6 6 7 7 7 7 5 4 4 5 7 8 9 9 10 9 9 10 10 10 10 11 12 13 14 15 17 18 18 19 20 22 23 23 23 22 21 20 19 18
20 21 19 16 15 16 15 14 14 16 17 15 13 11 9 9 10 10 10 10 9 8 6 5 5 6 6 6 5 3 2 2 3 5 6 7 8 8 8 8 8 8 8 9 10 11 12 13 14 15 15 16 17 18 19 20 22 23 23 22 21 20 19
21 21 18 15 16 17 15 16 17 17 16 14 12 12 11 10 10 11 11 10 9 7 5 4 4 5 6 6 4 2 2 2 1 3 5 5 6 5 6 6 7 7 7 7 8 9 10 11 12 13 13 14 15 15 16 18 19 21 22 23 22 21 21
20 19 16 16 19 17 16 18 20 19 16 13 12 12 12 12 12 12 11 9 8 6 4 3 4 5 6 5 4 3 3 4 3 2 3 4 4 4 4 4 5 6 6 6 7 8 9 10 11 12 12 12 13 13 14 15 17 19 21 22 23 22 21
18 16 16 19 20 17 17 19 20 17 14 12 12 12 13 13 13 11 10 8 7 6 5 4 5 6 6 6 6 6 6 6 5 4 3 3 3 3 3 3 4 4 4 4 6 7 8 9 9 10 11 11 12 12 12 13 14 16 18 20 22 23 22
14 14 17 19 17 16 17 19 18 15 13 13 13 13 14 13 12 10 9 7 6 6 6 6 6 6 7 7 7 8 8 8 6 5 4 3 3 3 3 3 3 3 2 3 4 6 7 8 8 9 10 11 11 12 12 12 13 14 16 18 20 22 23
12 13 17 19 18 18 19 19 17 14 13 14 15 14 14 12 10 9 8 7 6 7 7 7 7 7 6 6 6 7 7 7 5 4 3 2 3 4 5 5 4 3 3 3 5 6 7 7 8 8 9 10 10 11 12 12 12 13 14 16 18 20 22
13 14 16 18 18 19 20 19 17 15 15 16 16 15 13 11 9 8 8 8 8 9 8 7 6 6 6 5 5 5 5 5 4 4 4 3 3 4 5 5 5 4 5 5 6 7 7 8 8 8 9 10 10 11 12 12 12 13 13 14 16 18 21
16 17 18 18 18 19 20 18 16 16 17 16 16 14 13 10 9 8 8 9 11 11 10 9 8 7 6 5 5 5 4 5 5 5 5 4 4 4 5 5 6 6 6 6 7 8 8 9 9 9 9 10 11 11 12 13 13 13 14 14 14 16 19
18 17 18 19 20 20 19 17 16 17 17 16 15 14 12 10 9 9 9 10 12 12 12 10 9 9 7 6 6 5 4 4 5 5 5 5 4 4 5 5 5 6 6 6 7 9 10 10 10 9 9 10 11 11 12 13 14 14 14 14 14 14 16
18 18 19 20 21 20 18 18 18 18 17 16 15 13 12 11 9 8 9 11 12 13 12 10 9 9 8 7 6 5 4 4 4 4 4 4 4 3 3 3 4 5 6 6 7 9 10 10 10 10 10 10 11 12 13 13 14 15 15 14 13 13 14
19 22 23 22 21 19 18 19 19 18 17 16 14 12 11 10 7 7 9 11 12 13 11 10 9 8 7 7 6 5 5 4 3 3 3 2 2 2 3 4 5 6 7 9 10 10 10 10 10 11 11 11 11 12 13 13 14 14 15 15 13 12 13
22 25 24 22 21 19 18 18 18 17 16 15 13 11 10 7 5 7 9 10 12 12 11 9 8 7 6 5 4 4 4 4 3 3 2 1 3 4 5 6 7 8 9 10 11 11 11 10 9 10 11 11 11 11 12 13 14 14 15 15 13 12 12
25 25 22 20 20 18 17 17 18 17 16 14 12 11 9 5 4 6 9 11 12 12 9 8 7 5 4 3 2 2 2 2 2 1 1 2 3 5 6 6 8 8 9 9 10 11 12 11 9 9 10 11 11 11 11 13 14 14 15 15 14 13 12
24 22 20 20 19 17 17 17 17 17 16 14 12 10 7 5 5 6 8 11 12 11 9 7 6 4 3 2 1 1 1 2 2 3 4 5 6 7 7 7 8 8 8 9 9 10 11 11 10 10 11 12 12 12 12 13 14 15 15 15 14 13 12
24 21 19 19 18 18 18 18 17 16 15 13 12 9 7 7 7 6 7 9 10 9 8 7 5 3 2 1 1 2 3 3 3 5 6 7 9 10 10 9 10 10 11 11 11 11 11 11 11 12 13 13 13 13 13 13 14 15 15 14 14 14 12
23 22 20 19 19 19 18 17 16 15 13 12 11 10 9 9 9 7 7 7 7 7 7 6 4 2 1 1 3 4 5 5 5 6 7 8 9 10 11 10 11 11 12 12 13 13 12 12 13 13 14 15 15 15 15 14 14 14 15 14 14 14 13
23 22 20 19 20 19 16 15 14 13 12 11 10 10 10 10 9 7 6 6 6 6 5 4 3 1 1 3 5 6 6 6 6 7 8 8 8 9 10 10 11 12 13 13 13 13 13 14 14 14 15 15 16 16 16 15 14 15 15 15 15 15 13
23 22 20 19 19 18 15 14 13 12 11 10 8 8 9 9 10 8 6 5 5 3 3 3 3 2 3 4 5 6 8 8 8 8 8 9 10 10 11 11 11 12 13 13 12 12 13 13 13 14 15 16 16 16 16 16 16 16 16 15 15 15 13
23 22 21 19 19 18 15 13 12 12 11 9 7 7 7 9 10 10 8 6 5 3 2 1 2 3 4 5 6 8 9 9 8 7 8 8 9 11 12 12 10 9 10 12 13 12 11 11 12 13 14 16 16 16 16 16 16 15 15 14 13 13 12
21 20 20 19 18 17 16 14 13 12 10 8 6 6 7 9 11 11 9 7 5 4 3 1 1 2 3 5 7 8 8 7 7 7 7 7 8 10 12 12 12 8 6 8 11 11 9 9 10 11 12 13 14 15 15 15 14 13 13 13 13 13 11
Wind_Direction
183 184 187 190 189 185 183 180 178 179 180 183 189 185 165 161 174 172 162 164 162 136 115 98 61 34 23 29 39 47 50 45 38 33 30 27 22 16 13 12 10 8 6 2 359 357 352 347 343 340 340 340 341 346 348 348 348 342 328 320 326 335 336
181 181 184 187 187 186 182 178 178 178 179 186 190 180 165 175 179 175 171 167 159 139 120 80 38 28 34 47 54 52 46 39 34 30 26 24 21 18 16 13 10 9 5 0 357 352 345 341 339 338 340 340 344 350 352 348 348 352 355 350 341 341 344
180 182 185 186 187 186 179 175 176 177 180 187 185 173 172 181 179 177 178 172 161 141 113 66 44 54 65 66 59 50 44 37 31 27 24 22 21 19 14 7 8 8 3 358 354 348 343 339 338 338 340 342 347 354 356 351 352 3 38 37 4 351 349
181 184 186 187 188 185 176 172 175 178 181 183 179 175 177 177 174 174 176 171 156 131 87 60 68 80 78 65 55 49 41 33 28 26 24 21 17 13 6 2 6 4 359 357 352 346 341 338 339 343 344 346 352 358 359 0 8 23 58 51 18 356 352
183 185 185 187 187 179 167 171 179 180 179 173 171 178 174 168 166 161 157 154 141 114 81 77 82 88 81 62 50 42 33 28 27 26 23 19 13 4 1 4 7 5 1 358 353 347 343 343 347 349 348 350 357 2 4 14 39 52 68 53 18 358 351
184 183 184 184 183 172 164 173 182 181 179 172 170 175 170 164 162 155 151 147 125 93 87 89 90 87 75 59 44 34 28 24 24 24 21 20 17 13 16 19 19 16 10 3 0 358 355 354 354 354 354 356 2 8 15 35 60 66 69 48 10 357 348
182 178 181 181 178 168 164 172 179 181 182 176 172 173 168 163 161 154 149 135 104 92 94 95 99 87 65 53 39 28 24 22 24 24 24 27 28 28 32 36 38 34 23 15 12 9 5 1 359 359 2 5 10 18 33 55 64 64 62 44 18 6 358
178 176 177 175 171 161 160 169 178 179 178 174 171 168 162 165 163 154 145 123 103 102 102 102 101 83 57 43 33 27 27 28 28 27 28 32 35 37 39 41 43 38 28 21 16 11 8 4 2 4 10 17 22 30 46 62 65 63 55 42 28 17 9
177 176 170 168 166 155 157 168 176 176 172 166 163 158 157 164 163 153 142 128 119 113 116 116 97 70 46 33 32 33 35 33 31 31 33 36 38 39 39 39 38 32 26 24 18 14 11 8 8 10 17 29 35 38 51 62 65 62 50 39 29 16 9
176 167 157 159 156 149 156 167 171 171 164 152 149 153 158 164 164 156 140 124 123 121 124 115 80 53 35 30 35 40 40 39 41 41 41 43 41 39 42 48 49 45 41 37 32 30 26 20 19 19 24 36 43 45 54 63 63 56 43 33 24 15 11
148 141 145 148 143 144 154 160 160 162 155 146 149 156 161 165 165 157 136 123 126 128 124 105 69 45 31 29 37 45 50 52 53 51 49 49 44 44 56 62 59 56 55 53 49 47 42 35 31 29 31 38 45 48 55 60 58 48 37 29 22 18 18
141 150 156 151 142 144 149 148 151 154 145 146 154 157 162 164 158 146 133 129 130 126 116 97 67 40 32 38 49 58 62 61 58 55 54 52 49 53 64 65 59 56 56 56 57 56 52 48 44 40 37 39 44 46 50 53 51 42 32 24 19 17 18
154 166 163 153 144 143 144 145 151 148 135 141 150 154 161 162 150 137 132 129 126 120 108 89 67 51 52 61 64 64 64 62 59 56 54 56 55 57 59 57 55 55 53 55 60 61 59 56 52 47 43 43 45 45 44 46 46 40 27 18 14 13 15
151 157 150 147 147 144 143 146 146 139 134 139 143 145 149 148 139 132 129 124 119 115 99 77 67 68 71 72 68 67 67 62 57 56 56 56 57 58 56 52 51 51 51 58 65 66 63 60 55 51 48 47 48 48 46 44 44 38 23 13 11 10 11
149 148 134 132 142 147 148 145 140 137 139 141 141 141 140 137 135 132 127 119 114 104 84 71 73 77 79 77 73 73 71 63 57 57 58 55 54 58 59 55 52 49 52 64 69 67 63 59 55 52 49 48 48 50 49 46 43 36 24 15 11 8 7
152 149 137 134 140 144 145 141 139 144 148 148 149 148 143 139 136 129 120 116 111 96 80 79 78 77 82 82 76 75 71 61 56 58 58 54 52 55 57 57 56 54 60 69 69 65 60 55 51 49 47 46 45 46 47 47 45 39 30 23 16 10 6
155 152 145 142 144 145 143 139 142 153 155 151 150 145 139 135 127 120 118 114 106 94 88 85 74 71 81 85 81 77 68 57 53 54 56 53 50 51 55 59 59 60 66 70 67 63 58 52 47 46 45 44 42 41 42 44 45 42 38 33 27 19 13
158 154 149 148 153 157 155 147 147 154 153 148 143 134 127 125 122 121 119 110 104 97 90 85 74 70 78 84 82 78 69 54 46 45 47 48 47 46 51 59 63 64 66 67 65 61 55 48 45 44 43 42 40 39 38 40 41 41 39 38 34 29 22
162 157 155 157 161 163 160 151 149 155 152 143 133 125 121 122 122 122 116 108 104 96 88 86 78 70 74 80 80 82 87 64 39 37 36 38 43 43 46 58 67 68 67 65 63 59 53 47 44 43 42 40 38 37 35 35 36 37 37 36 35 32 27
164 160 159 162 164 164 160 153 151 153 148 137 130 128 127 126 124 120 114 106 99 93 90 90 77 71 74 77 80 101 134 136 78 38 27 30 40 42 46 60 71 72 70 65 60 56 50 45 40 39 38 36 35 34 33 31 30 31 32 32 31 30 26
167 167 166 167 168 168 163 155 153 151 144 137 138 137 132 130 126 119 112 103 98 98 97 89 82 81 80 79 82 102 132 140 119 59 33 40 50 53 59 73 78 75 72 66 59 52 45 40 35 33 31 29 29 30 30 29 26 25 26 27 26 25 22
175 176 173 173 175 173 164 158 155 153 148 142 141 138 132 128 122 116 112 107 103 102 99 94 95 90 80 74 78 92 110 113 104 88 78 74 68 66 76 93 90 81 75 64 53 44 39 34 27 26 25 23 23 25 26 25 23 20 20 20 21 21 18
183 176 172 176 177 167 160 159 157 155 150 142 138 137 131 125 118 114 114 112 107 103 98 95 95 91 82 74 75 86 97 98 93 90 88 78 70 75 86 96 93 80 63 41 30 27 27 21 15 15 17 17 17 19 20 20 18 16 13 14 16 16 15
181 172 169 171 164 156 158 161 158 155 149 140 138 136 127 119 115 115 116 114 112 106 96 91 91 88 81 73 75 83 90 91 91 93 97 91 87 89 86 81 75 58 37 20 10 10 8 3 2 0 1 7 10 11 12 12 12 11 8 8 11 12 12
171 167 165 164 158 156 160 160 156 152 146 141 140 135 124 116 114 118 121 118 113 105 96 92 93 89 80 73 76 86 92 89 86 97 112 115 106 95 80 67 60 47 31 17 8 4 359 354 353 349 346 352 357 0 2 3 5 5 3 2 5 7 9
169 166 165 162 160 159 160 160 157 150 145 143 139 132 124 122 120 123 126 121 112 105 97 93 93 95 95 88 82 89 96 87 81 95 108 110 103 89 69 56 51 40 28 19 13 9 3 355 352 348 342 339 342 349 353 354 356 358 357 356 357 360 3
170 169 167 162 159 158 158 159 155 147 142 141 137 131 129 132 130 128 130 125 115 107 100 95 93 94 96 95 91 94 100 94 90 97 102 101 95 80 60 48 39 27 19 17 12 6 0 353 348 345 341 335 333 338 343 347 350 350 350 350 348 350 355
169 165 159 154 154 157 158 158 152 147 144 141 137 135 137 139 135 131 134 133 124 115 106 99 95 91 89 87 89 95 104 110 110 110 108 104 93 74 52 30 12 3 357 352 349 349 349 346 341 339 339 335 331 331 335 340 343 343 345 345 342 341 344
162 155 153 152 155 159 160 157 153 150 147 144 141 140 141 142 144 138 139 141 134 124 116 107 99 91 85 80 76 78 87 100 115 122 120 106 56 18 4 350 340 337 334 330 328 330 333 336 334 332 333 333 331 329 332 335 337 338 340 342 340 335 333
155 153 154 155 157 159 159 157 155 152 150 149 147 145 143 146 154 146 145 148 142 132 124 117 107 97 88 79 66 63 65 69 87 105 105 35 356 347 344 337 329 327 326 323 321 321 322 325 325 323 325 328 329 328 328 329 332 334 335 337 339 333 327
152 152 154 155 156 158 160 158 155 153 154 155 154 152 149 154 161 150 149 153 149 141 135 129 120 109 98 83 59 46 39 34 43 40 0 337 333 336 337 333 328 328 327 324 321 318 316 314 311 312 316 320 322 323 323 324 328 332 332 333 335 333 326
153 153 155 157 159 160 161 159 156 156 159 158 157 158 163 168 162 152 151 158 160 158 154 147 135 119 104 85 51 1 333 330 322 313 311 310 309 311 315 318 320 322 323 324 324 319 314 311 307 307 311 315 316 317 318 320 325 329 329 329 330 331 327
156 156 157 160 163 163 162 160 160 163 164 160 159 166 176 172 161 150 149 159 170 175 169 160 153 141 119 80 20 344 340 343 329 313 308 304 299 297 299 302 306 309 312 317 319 316 314 312 309 309 312 314 313 313 314 318 322 324 325 326 326 326 325
159 159 161 165 168 166 164 162 163 166 165 160 160 169 173 165 157 153 150 156 170 179 176 173 174 166 125 25 355 344 343 342 337 330 323 313 305 301 301 303 304 303 306 310 311 310 309 308 307 311 315 316 314 313 315 317 319 319 319 321 322 322 322
160 160 164 169 171 168 166 167 167 165 162 159 161 164 163 158 156 158 158 157 163 172 181 190 200 212 323 338 340 342 342 337 334 337 338 334 329 322 316 315 311 306 307 310 309 307 304 302 305 312 317 317 316 316 316 317 319 317 315 315 318 320 320
164 166 168 170 172 171 169 169 168 163 160 159 157 154 155 156 158 163 169 167 156 151 178 209 229 260 295 316 325 329 331 331 329 334 340 343 341 334 327 323 318 310 309 312 313 310 307 304 308 315 318 317 317 317 315 316 317 317 316 316 318 320 320
168 171 171 171 171 171 171 170 168 164 160 152 143 142 151 160 165 169 173 168 149 129 136 197 250 269 285 301 307 311 318 323 325 328 333 339 340 335 330 327 326 320 311 308 311 315 316 313 313 315 315 315 317 318 316 315 317 318 318 320 321 322 322
173 173 171 171 169 168 169 170 168 164 159 148 136 140 156 169 175 177 177 173 162 143 124 106 338 304 295 296 298 303 309 316 321 323 325 329 332 332 330 328 331 337 322 300 306 318 326 323 318 317 318 320 324 326 324 321 321 322 322 322 323 324 322